Lapeer, MI

7:53 AM EDT on May 30, 2017 (GMT -0400)
Lapeer

Weather History for KD95 - May, 2013

Change the Weather History Date:

Tuesday, May 14, 2013

  Actual Average (KFNT) Record (KFNT)
Temperature  
Mean Temperature 50 °F -  
Max Temperature 61 °F 66 °F 87 °F (1962)
Min Temperature 39 °F 45 °F 32 °F (1997)
Degree Days  
Heating Degree Days 15    
Moisture  
Dew Point 38 °F    
Average Humidity 62    
Maximum Humidity 76    
Minimum Humidity 46    
Precipitation  
Precipitation 0.00 in - - ()
Sea Level Pressure  
Sea Level Pressure 29.92 in    
Wind  
Wind Speed 6 mph (SE)    
Max Wind Speed 16 mph    
Max Gust Speed 22 mph    
Visibility 10 miles    
Events Rain    
Averages and records for this station are not official NWS values.
T = Trace of Precipitation, MM = Missing Value Source: NWS Daily Summary

Daily Weather History Graph

Daily Weather History Graph

Search for Another Location

Airport or City:

Trip Planner

Search our weather history database for the weather conditions in past years. The results will help you decide how hot, cold, wet, or windy it might be!

Date:

Astronomy

May. 14, 2013 Rise Set
Actual Time 6:10 AM EDT 8:49 PM EDT
Civil Twilight 5:37 AM EDT 9:21 PM EDT
Nautical Twilight 4:57 AM EDT 10:02 PM EDT
Astronomical Twilight 4:10 AM EDT 10:49 PM EDT
Moon 9:49 AM EDT (5/14) No Moon Set
Length of Visible Light 15h 43m
Length of Day
14h 38m
Waxing Crescent, 19% of the Moon is Illuminated
May 14
Waxing Crescent
May 18
First Quarter
May 25
Full
May 31
Last Quarter
Jun 8
New

Hourly Weather History & Observations

Time (EDT) Temp. Windchill Dew Point Humidity Pressure Visibility Wind Dir Wind Speed Gust Speed Precip Events Conditions
12:14 AM 39.4 °F - 32.2 °F 75% 30.10 in 10.0 mi Calm Calm - N/A   Clear
12:33 AM 42.1 °F 38.4 °F 30.6 °F 64% 30.10 in 10.0 mi South 5.8 mph - N/A   Clear
12:54 AM 42.3 °F 38.6 °F 30.6 °F 63% 30.08 in 10.0 mi South 5.8 mph - N/A   Clear
1:14 AM 41.9 °F 39.0 °F 30.9 °F 65% 30.08 in 10.0 mi South 4.6 mph - N/A   Scattered Clouds
1:33 AM 41.9 °F 40.0 °F 31.3 °F 66% 30.08 in 10.0 mi South 3.5 mph - N/A   Scattered Clouds
1:54 AM 42.4 °F 39.6 °F 31.1 °F 64% 30.07 in 10.0 mi South 4.6 mph - N/A   Scattered Clouds
2:13 AM 42.8 °F 39.3 °F 31.1 °F 63% 30.06 in 10.0 mi South 5.8 mph - N/A   Scattered Clouds
2:34 AM 42.8 °F 41.1 °F 31.5 °F 64% 30.06 in 10.0 mi South 3.5 mph - N/A   Scattered Clouds
2:54 AM 42.4 °F 40.7 °F 31.6 °F 66% 30.06 in 10.0 mi South 3.5 mph - N/A   Scattered Clouds
3:13 AM 42.3 °F 39.4 °F 32.0 °F 67% 30.05 in 10.0 mi South 4.6 mph - N/A   Mostly Cloudy
3:34 AM 42.4 °F - 32.4 °F 68% 30.06 in 10.0 mi North - - N/A   Overcast
3:53 AM 42.8 °F 41.1 °F 32.9 °F 68% 30.06 in 10.0 mi South 3.5 mph - N/A   Overcast
4:14 AM 42.8 °F 41.1 °F 33.6 °F 70% 30.07 in 10.0 mi South 3.5 mph - N/A   Overcast
4:34 AM 42.4 °F - 34.3 °F 73% 30.06 in 10.0 mi Calm Calm - N/A   Overcast
4:53 AM 42.8 °F 41.1 °F 34.3 °F 72% 30.05 in 10.0 mi South 3.5 mph - N/A   Overcast
5:14 AM 43.2 °F 40.5 °F 33.8 °F 70% 30.05 in 10.0 mi South 4.6 mph - N/A   Overcast
5:34 AM 43.7 °F - 33.3 °F 67% 30.05 in 10.0 mi Calm Calm - N/A   Light Drizzle
5:54 AM 43.2 °F 41.5 °F 34.7 °F 72% 30.03 in 10.0 mi SSE 3.5 mph - N/A   Overcast
6:14 AM 43.2 °F 40.5 °F 34.2 °F 71% 30.03 in 10.0 mi SE 4.6 mph - N/A   Overcast
6:33 AM 44.1 °F 42.5 °F 33.4 °F 66% 30.02 in 10.0 mi SSE 3.5 mph - N/A   Overcast
6:54 AM 44.8 °F 42.4 °F 32.5 °F 62% 30.02 in 10.0 mi SSE 4.6 mph - N/A   Overcast
7:13 AM 45.1 °F 42.0 °F 32.0 °F 60% 30.00 in 10.0 mi SSE 5.8 mph - N/A   Overcast
7:34 AM 45.5 °F 42.5 °F 32.4 °F 60% 30.00 in 10.0 mi SSE 5.8 mph - N/A   Overcast
7:54 AM 45.3 °F 42.3 °F 33.1 °F 62% 30.00 in 10.0 mi SSE 5.8 mph - N/A   Overcast
8:13 AM 45.0 °F 41.2 °F 34.0 °F 65% 30.00 in 10.0 mi SE 6.9 mph - N/A   Overcast
8:34 AM 45.5 °F 41.8 °F 34.7 °F 66% 30.00 in 10.0 mi SSE 6.9 mph - N/A   Overcast
8:53 AM 45.9 °F 43.6 °F 35.1 °F 66% 30.00 in 10.0 mi SSE 4.6 mph - N/A   Overcast
9:14 AM 45.9 °F 42.9 °F 38.1 °F 74% 30.00 in 10.0 mi SE 5.8 mph - N/A Rain Light Rain
9:34 AM 46.6 °F - 39.4 °F 76% 29.99 in 10.0 mi SE 5.8 mph - N/A   Overcast
9:53 AM 48.4 °F - 39.7 °F 72% 29.98 in 10.0 mi SSE 10.4 mph - N/A   Overcast
10:14 AM 49.3 °F - 39.9 °F 70% 29.95 in 10.0 mi SE 10.4 mph - N/A   Overcast
10:33 AM 49.5 °F - 39.7 °F 69% 29.94 in 10.0 mi SE 9.2 mph - N/A   Overcast
10:54 AM 49.5 °F - 40.3 °F 71% 29.92 in 10.0 mi SE 10.4 mph 19.6 mph N/A   Overcast
11:14 AM 50.5 °F - 41.0 °F 70% 29.93 in 10.0 mi SE 13.8 mph - N/A   Overcast
11:33 AM 51.1 °F - 41.0 °F 68% 29.92 in 10.0 mi SE 15.0 mph 21.9 mph N/A   Overcast
11:54 AM 52.2 °F - 41.0 °F 66% 29.90 in 10.0 mi SSE 15.0 mph 21.9 mph N/A   Overcast
12:14 PM 52.7 °F - 41.0 °F 64% 29.89 in 10.0 mi SE 16.1 mph 21.9 mph N/A   Overcast
12:34 PM 53.6 °F - 41.2 °F 63% 29.90 in 10.0 mi SE 11.5 mph 21.9 mph N/A   Overcast
12:54 PM 53.2 °F - 41.0 °F 63% 29.89 in 10.0 mi SSE 12.7 mph 20.7 mph N/A   Overcast
1:13 PM 53.6 °F - 41.4 °F 63% 29.89 in 10.0 mi SE 11.5 mph 18.4 mph N/A   Overcast
1:34 PM 54.9 °F - 41.5 °F 61% 29.88 in 10.0 mi SE 12.7 mph 21.9 mph N/A   Overcast
1:54 PM 56.1 °F - 41.5 °F 58% 29.88 in 10.0 mi SE 12.7 mph 17.3 mph N/A   Overcast
2:14 PM 57.4 °F - 41.4 °F 55% 29.87 in 10.0 mi SSE 13.8 mph 19.6 mph N/A   Overcast
2:34 PM 59.2 °F - 41.9 °F 53% 29.86 in 10.0 mi SSE 13.8 mph 17.3 mph N/A   Mostly Cloudy
2:53 PM 59.2 °F - 42.1 °F 53% 29.85 in 10.0 mi SE 12.7 mph 18.4 mph N/A   Scattered Clouds
3:14 PM 60.3 °F - 42.3 °F 51% 29.84 in 10.0 mi SE 12.7 mph 19.6 mph N/A   Mostly Cloudy
3:34 PM 60.1 °F - 41.7 °F 51% 29.84 in 10.0 mi SE 11.5 mph 18.4 mph N/A   Overcast
3:53 PM 60.1 °F - 41.4 °F 50% 29.84 in 10.0 mi ESE 12.7 mph 18.4 mph N/A   Scattered Clouds
4:14 PM 60.4 °F - 41.9 °F 50% 29.83 in 10.0 mi SE 10.4 mph - N/A   Clear
4:33 PM 60.3 °F - 41.2 °F 49% 29.82 in 10.0 mi SSE 12.7 mph 16.1 mph N/A   Clear
4:54 PM 60.6 °F - 40.3 °F 47% 29.81 in 10.0 mi SE 13.8 mph 20.7 mph N/A   Clear
5:14 PM 61.0 °F - 40.6 °F 47% 29.81 in 10.0 mi SE 12.7 mph 19.6 mph N/A   Clear
5:33 PM 61.0 °F - 40.3 °F 46% 29.82 in 10.0 mi SE 11.5 mph 18.4 mph N/A   Clear
5:54 PM 61.3 °F - 40.8 °F 47% 29.81 in 10.0 mi SE 8.1 mph - N/A   Clear
6:14 PM 60.8 °F - 40.3 °F 47% 29.81 in 10.0 mi SE 10.4 mph 19.6 mph N/A   Clear
6:33 PM 60.8 °F - 40.5 °F 47% 29.80 in 10.0 mi SE 5.8 mph - N/A   Clear
6:54 PM 60.1 °F - 41.9 °F 51% 29.80 in 10.0 mi ESE 5.8 mph - N/A   Clear
7:13 PM 59.2 °F - 41.5 °F 52% 29.80 in 10.0 mi ESE 8.1 mph - N/A   Clear
7:34 PM 58.5 °F - 41.4 °F 53% 29.80 in 10.0 mi SE 6.9 mph - N/A   Clear
7:53 PM 57.7 °F - 41.0 °F 54% 29.79 in 10.0 mi ESE 9.2 mph - N/A   Clear
8:14 PM 57.2 °F - 41.2 °F 55% 29.78 in 10.0 mi ESE 5.8 mph - N/A   Clear
8:33 PM 56.5 °F - 41.0 °F 56% 29.78 in 10.0 mi ESE 8.1 mph - N/A   Clear
8:53 PM 55.4 °F - 41.0 °F 58% 29.78 in 10.0 mi SE 5.8 mph - N/A   Clear
9:14 PM 54.7 °F - 41.0 °F 60% 29.78 in 10.0 mi SE 5.8 mph - N/A   Clear
9:33 PM 54.0 °F - 41.0 °F 62% 29.76 in 10.0 mi SE 6.9 mph - N/A   Clear
9:54 PM 53.6 °F - 41.0 °F 62% 29.76 in 10.0 mi SE 9.2 mph - N/A   Clear
10:14 PM 52.9 °F - 41.0 °F 64% 29.74 in 10.0 mi SE 11.5 mph 16.1 mph N/A   Clear
10:33 PM 53.1 °F - 41.0 °F 64% 29.77 in 10.0 mi SE 9.2 mph - N/A   Clear
10:54 PM 53.4 °F - 41.2 °F 63% 29.78 in 10.0 mi South 5.8 mph - N/A   Clear
11:14 PM 53.6 °F - 41.5 °F 64% 29.77 in 10.0 mi SSE 4.6 mph - N/A   Scattered Clouds
11:33 PM 53.8 °F - 41.9 °F 64% 29.76 in 10.0 mi SE 5.8 mph - N/A   Scattered Clouds
11:54 PM 54.0 °F - 41.9 °F 64% 29.74 in 10.0 mi SE 9.2 mph - N/A Rain Light Rain